User: anonymous   Login
Location: Campillo
(40.8621°N, 4.2488°W)
Time: 17:02:17
(UTC+00:00)
Language:

ARIANE 5 R/B - Orbit

View from above orbital plane
View from above orbital plane
View from above satellite
View from above satellite

Ground track
Ground track

The orbit data is extracted from the following two-line orbital elements,

1 36125U 09073B   21209.89666080 0.00000000  00000-0  00000-0 0    06
2 36125  98.1427 277.3312 0025978 165.1007 194.8991 14.77171557    02
Epoch (UTC): 28 July 2021 21:31:11
Eccentricity: 0.0025978
inclination: 98.1427°
perigee height: 620 km
apogee height: 656 km
right ascension of ascending node: 277.3312°
argument of perigee: 165.1007°
revolutions per day: 14.77171557
mean anomaly at epoch: 194.8991°
orbit number at epoch: 0

The dashed part of the orbit path shows where the satellite is in the earth's shadow,  

DLR